Regional Weather Roundup
Issued by NWS Little Rock, AR

Home | Current Version | Previous Version | Text Only | Print | Product List | Glossary Off
Versions: 1 2 3 4 5 6 7 8 9 10 11 12 13 14 15 16 17 18 19 20 21 22 23 24 25 26 27 28 29 30 31

000
ASUS44 KLZK 281212
RWRLZK

WEATHER ROUNDUP FOR ARKANSAS
NATIONAL WEATHER SERVICE LITTLE ROCK AR
700 AM CDT FRI JUL 28 2017

NOTE: "FAIR" INDICATES FEW OR NO CLOUDS BELOW 12,000 FEET WITH NO
SIGNIFICANT WEATHER AND/OR OBSTRUCTIONS TO VISIBILITY.

ARZ001-003-010-029-281300-
NORTHWEST ARKANSAS

CITY           SKY/WX    TMP DP  RH WIND       PRES   REMARKS
FAYETTEVILLE   CLOUDY    74  74 100 CALM      29.93S
6HR MIN TEMP:  74; 6HR MAX TEMP:  77; 6HR PCP:  0.22;

FORT SMITH     LGT RAIN  78  77  96 CALM      29.88F
6HR MIN TEMP:  78; 6HR MAX TEMP:  87; 6HR PCP:  0.46;

HARRISON       CLOUDY    74  74 100 CALM      29.94R
6HR MIN TEMP:  73; 6HR MAX TEMP:  77; 6HR PCP:  0.23;

BENTONVILLE    MOCLDY    75  73  94 CALM      29.94R
6HR MIN TEMP:  73; 6HR MAX TEMP:  77; 6HR PCP:  0.83;

ROGERS         CLOUDY    74  73  97 CALM      29.95R
6HR MIN TEMP:  74; 6HR MAX TEMP:  78; 6HR PCP:  1.29;

SILOAM SPGS    MOCLDY    73  72  94 CALM      29.93S
6HR MIN TEMP:  73; 6HR MAX TEMP:  79; 6HR PCP:  0.18;

HIGHFILL       PTCLDY    75  75 100 N3        29.93S
6HR MIN TEMP:  75; 6HR MAX TEMP:  80; 6HR PCP:  0.65;

SPRINGDALE     MOCLDY    75  75 100 S3        29.94S
$$

ARZ004-005-016-281300-
NORTH CENTRAL ARKANSAS

CITY           SKY/WX    TMP DP  RH WIND       PRES   REMARKS
BATESVILLE     CLOUDY    77  72  83 W7        29.89R
6HR MIN TEMP:  77; 6HR MAX TEMP:  79;

FLIPPIN        CLOUDY    77  72  83 CALM      29.89R
6HR MIN TEMP:  75; 6HR MAX TEMP:  79; 6HR PCP:  0.08;

MTN HOME       CLOUDY    75  75 100 CALM      29.91R THUNDER
6HR MIN TEMP:  74; 6HR MAX TEMP:  78; 6HR PCP:  0.12;

$$

ARZ040-041-281300-
WEST CENTRAL ARKANSAS

CITY           SKY/WX    TMP DP  RH WIND       PRES   REMARKS
MENA           CLOUDY    77  77 100 CALM      29.95S
MOUNT IDA      CLOUDY    80  71  74 CALM      29.91R
6HR MIN TEMP:  79; 6HR MAX TEMP:  85;

$$

ARZ009-017-025-026-028-281300-
NORTHEAST ARKANSAS

CITY           SKY/WX    TMP DP  RH WIND       PRES   REMARKS
CORNING        CLOUDY    77  77 100 NW6       29.87R
JONESBORO      MOCLDY    79  77  94 W7        29.86R
6HR MIN TEMP:  78; 6HR MAX TEMP:  80;

WALNUT RIDGE   CLOUDY    77  73  88 W7        29.87R
6HR MIN TEMP:  75; 6HR MAX TEMP:  79;

BLYTHEVILLE    MOCLDY    78  77  96 SW5       29.85R
6HR MIN TEMP:  77; 6HR MAX TEMP:  78;

$$

ARZ022-023-033-042-044-281300-
CENTRAL ARKANSAS

CITY           SKY/WX    TMP DP  RH WIND       PRES   REMARKS
LITTLE ROCK    LGT RAIN  76  76 100 SW5       29.91R
6HR MIN TEMP:  76; 6HR MAX TEMP:  84; 6HR PCP:  0.31;

N LITTLE ROCK    N/A     76  74  93 W5        29.89R
6HR MIN TEMP:  75; 6HR MAX TEMP:  80;

JACKSONVILLE   CLOUDY    77  77  99 CALM      29.90R
6HR MIN TEMP:  77; 6HR MAX TEMP:  80; 6HR PCP:  0.05;

CONWAY           N/A     79  79 100 NW3       29.89R
SEARCY         LGT RAIN  77  77 100 S6        29.91R
6HR MIN TEMP:  76; 6HR MAX TEMP:  78;

HOT SPRINGS    CLOUDY    81  76  84 CALM      29.92R HX  87
6HR MIN TEMP:  80; 6HR MAX TEMP:  83; 6HR PCP: TRACE;

RUSSELLVILLE   LGT RAIN  76  75  97 CALM      29.92R
6HR MIN TEMP:  76; 6HR MAX TEMP:  79; 6HR PCP:  0.12;

CLINTON        LGT RAIN  75  73  94 CALM      29.89F
$$

ARZ036-281300-
EAST ARKANSAS

CITY           SKY/WX    TMP DP  RH WIND       PRES   REMARKS
WEST MEMPHIS   MOCLDY    79  77  94 VRB3      29.87R
6HR MIN TEMP:  78; 6HR MAX TEMP:  81;

$$

ARZ050-053-066-070-073-281300-
SOUTHWEST ARKANSAS

CITY           SKY/WX    TMP DP  RH WIND       PRES   REMARKS
ARKADELPHIA    CLOUDY    78  76  93 CALM      29.93
6HR MIN TEMP:  78; 6HR MAX TEMP:  81;

CAMDEN         LGT RAIN  81  72  74 SW7       29.91S
TEXARKANA      CLOUDY    80  74  81 SW9       29.92R HX  85
6HR MIN TEMP:  80; 6HR MAX TEMP:  82;

EL DORADO      PTCLDY    77  74  90 SW6       29.93S
6HR MIN TEMP:  76; 6HR MAX TEMP:  79;

DE QUEEN       CLOUDY    77  77 100 CALM      29.90R
6HR MIN TEMP:  77; 6HR MAX TEMP:  78;

$$

ARZ056-057-069-281300-
SOUTHEAST ARKANSAS

CITY           SKY/WX    TMP DP  RH WIND       PRES   REMARKS
PINE BLUFF     CLOUDY    79  75  87 W3        29.93R
6HR MIN TEMP:  78; 6HR MAX TEMP:  82; 6HR PCP:  0.01;

STUTTGART      CLOUDY    79  66  65 W8        29.92R
6HR MIN TEMP:  79; 6HR MAX TEMP:  82; 6HR PCP:  0.16;

MONTICELLO     CLOUDY    80  73  79 SW6       29.92R
6HR MIN TEMP:  80; 6HR MAX TEMP:  84;


$$






USA.gov is the U.S. government's official web portal to all federal, state and local government web resources and services.